owner,sensor,date,latitude,longitude,vertical_datum,direction_of_sea_water_velocity,sea_water_speed,upward_sea_water_velocity,qcFlag 
TABS,ioos:station:wmo:42047:1,2006-02-01T00:00:00Z,27.8966,-93.5973,2.0,266.6059677,14.86606875,-99999.0,'11111222,11111222,99999999' 
TABS,ioos:station:wmo:42047:1,2006-02-01T00:30:00Z,27.8966,-93.5973,2.0,265.2947004,11.33820533,-99999.0,'11111222,11111222,99999999' 
TABS,ioos:station:wmo:42047:1,2006-02-01T01:00:00Z,27.8966,-93.5973,2.0,266.626741,10.53825412,-99999.0,'11111222,11111222,99999999' 
TABS,ioos:station:wmo:42047:1,2006-02-01T01:30:00Z,27.8966,-93.5973,2.0,253.0998911,12.86560142,-99999.0,'11111222,11111222,99999999' 
TABS,ioos:station:wmo:42047:1,2006-02-01T02:00:00Z,27.8966,-93.5973,2.0,249.1875013,12.04599519,-99999.0,'11111222,11111222,99999999' 
TABS,ioos:station:wmo:42047:1,2006-02-01T03:00:00Z,27.8966,-93.5973,2.0,253.6857648,11.10720487,-99999.0,'11111222,11111222,99999999' 
TABS,ioos:station:wmo:42047:1,2006-02-01T03:30:00Z,27.8966,-93.5973,2.0,264.3203426,9.094641279,-99999.0,'11133222,11111222,99999999' 
TABS,ioos:station:wmo:42047:1,2006-02-01T04:00:00Z,27.8966,-93.5973,2.0,269.7552495,9.380085287,-99999.0,'11133222,11111222,99999999' 
TABS,ioos:station:wmo:42047:1,2006-02-01T04:30:00Z,27.8966,-93.5973,2.0,264.1004167,8.464827228,-99999.0,'11133222,11111222,99999999' 
TABS,ioos:station:wmo:42047:1,2006-02-01T05:00:00Z,27.8966,-93.5973,2.0,265.9917839,12.59079028,-99999.0,'11111222,11111222,99999999' 
TABS,ioos:station:wmo:42047:1,2006-02-01T05:30:00Z,27.8966,-93.5973,2.0,268.1471961,7.734041634,-99999.0,'11133222,11111222,99999999' 
TABS,ioos:station:wmo:42047:1,2006-02-01T06:00:00Z,27.8966,-93.5973,2.0,277.039197,8.242117446,-99999.0,'11133222,11111222,99999999' 
TABS,ioos:station:wmo:42047:1,2006-02-01T06:30:00Z,27.8966,-93.5973,2.0,283.5070804,8.134992317,-99999.0,'11133222,11111222,99999999' 
TABS,ioos:station:wmo:42047:1,2006-02-01T07:00:00Z,27.8966,-93.5973,2.0,291.5968684,9.346106141,-99999.0,'11133222,11111222,99999999' 
TABS,ioos:station:wmo:42047:1,2006-02-01T07:30:00Z,27.8966,-93.5973,2.0,292.079182,9.205025801,-99999.0,'11133222,11111222,99999999' 
TABS,ioos:station:wmo:42047:1,2006-02-01T08:00:00Z,27.8966,-93.5973,2.0,312.6670922,6.079087103,-99999.0,'11133222,11111222,99999999' 
TABS,ioos:station:wmo:42047:1,2006-02-01T08:30:00Z,27.8966,-93.5973,2.0,311.399046,3.039490089,-99999.0,'11133222,11111222,99999999' 
TABS,ioos:station:wmo:42047:1,2006-02-01T09:00:00Z,27.8966,-93.5973,2.0,307.8500422,3.976581446,-99999.0,'11133222,11111222,99999999' 
TABS,ioos:station:wmo:42047:1,2006-02-01T09:30:00Z,27.8966,-93.5973,2.0,298.1135641,2.482941804,-99999.0,'11133222,11111222,99999999' 
TABS,ioos:station:wmo:42047:1,2006-02-01T10:00:00Z,27.8966,-93.5973,2.0,331.6995209,1.771778767,-99999.0,'11133222,11111222,99999999' 
TABS,ioos:station:wmo:42047:1,2006-02-01T10:30:00Z,27.8966,-93.5973,2.0,41.5022783,2.897464409,-99999.0,'11133222,11111222,99999999' 
TABS,ioos:station:wmo:42047:1,2006-02-01T11:00:00Z,27.8966,-93.5973,2.0,147.4377072,3.381552898,-99999.0,'11133222,11111222,99999999' 
TABS,ioos:station:wmo:42047:1,2006-02-01T11:30:00Z,27.8966,-93.5973,2.0,224.4346568,3.585205712,-99999.0,'11133222,11111222,99999999' 
TABS,ioos:station:wmo:42047:1,2006-02-01T12:00:00Z,27.8966,-93.5973,2.0,165.0308757,4.916848584,-99999.0,'11133222,11111222,99999999' 
TABS,ioos:station:wmo:42047:1,2006-02-01T12:30:00Z,27.8966,-93.5973,2.0,149.8453121,3.642993275,-99999.0,'11133222,11111222,99999999' 
TABS,ioos:station:wmo:42047:1,2006-02-01T13:00:00Z,27.8966,-93.5973,2.0,157.7981338,6.11323973,-99999.0,'11133222,11111222,99999999' 
TABS,ioos:station:wmo:42047:1,2006-02-01T13:30:00Z,27.8966,-93.5973,2.0,169.2043612,2.402519511,-99999.0,'11133222,11111222,99999999' 
TABS,ioos:station:wmo:42047:1,2006-02-01T14:00:00Z,27.8966,-93.5973,2.0,184.7521569,4.224523642,-99999.0,'11133222,11111222,99999999' 
TABS,ioos:station:wmo:42047:1,2006-02-01T14:30:00Z,27.8966,-93.5973,2.0,212.5804577,2.005617112,-99999.0,'11133222,11111222,99999999' 
TABS,ioos:station:wmo:42047:1,2006-02-01T15:00:00Z,27.8966,-93.5973,2.0,227.9353509,0.552268051,-99999.0,'11133222,11111222,99999999' 
TABS,ioos:station:wmo:42047:1,2006-02-01T15:30:00Z,27.8966,-93.5973,2.0,274.399116,0.521536192,-99999.0,'11133222,11111222,99999999' 
TABS,ioos:station:wmo:42047:1,2006-02-01T16:30:00Z,27.8966,-93.5973,2.0,61.49078511,6.327242685,-99999.0,'11133222,11111222,99999999' 
TABS,ioos:station:wmo:42047:1,2006-02-01T17:00:00Z,27.8966,-93.5973,2.0,72.17828625,6.796123895,-99999.0,'11133222,11111222,99999999' 
TABS,ioos:station:wmo:42047:1,2006-02-01T17:30:00Z,27.8966,-93.5973,2.0,61.2924192,7.057492473,-99999.0,'11133222,11111222,99999999' 
TABS,ioos:station:wmo:42047:1,2006-02-01T18:00:00Z,27.8966,-93.5973,2.0,50.54685596,8.120252459,-99999.0,'11133222,11111222,99999999' 
TABS,ioos:station:wmo:42047:1,2006-02-01T18:30:00Z,27.8966,-93.5973,2.0,51.73057343,8.024394058,-99999.0,'11133222,11111222,99999999' 
TABS,ioos:station:wmo:42047:1,2006-02-01T19:00:00Z,27.8966,-93.5973,2.0,33.32367201,9.538265041,-99999.0,'11133222,11111222,99999999' 
TABS,ioos:station:wmo:42047:1,2006-02-01T19:30:00Z,27.8966,-93.5973,2.0,27.38400748,10.32721647,-99999.0,'11111222,11111222,99999999' 
TABS,ioos:station:wmo:42047:1,2006-02-01T20:00:00Z,27.8966,-93.5973,2.0,30.02850222,11.03054396,-99999.0,'11111222,11111222,99999999' 
TABS,ioos:station:wmo:42047:1,2006-02-01T20:30:00Z,27.8966,-93.5973,2.0,31.10757241,12.31020715,-99999.0,'11111222,11111222,99999999' 
TABS,ioos:station:wmo:42047:1,2006-02-01T21:00:00Z,27.8966,-93.5973,2.0,40.67383752,11.15457305,-99999.0,'11111222,11111222,99999999' 
TABS,ioos:station:wmo:42047:1,2006-02-01T21:30:00Z,27.8966,-93.5973,2.0,54.35306261,9.74621978,-99999.0,'11133222,11111222,99999999' 
TABS,ioos:station:wmo:42047:1,2006-02-01T22:00:00Z,27.8966,-93.5973,2.0,87.32399883,9.210043431,-99999.0,'11133222,11111222,99999999' 
TABS,ioos:station:wmo:42047:1,2006-02-01T22:30:00Z,27.8966,-93.5973,2.0,107.428026,10.61740552,-99999.0,'11111222,11111222,99999999' 
TABS,ioos:station:wmo:42047:1,2006-02-01T23:00:00Z,27.8966,-93.5973,2.0,113.7400029,13.33870309,-99999.0,'11111222,11111222,99999999' 
TABS,ioos:station:wmo:42047:1,2006-02-01T23:30:00Z,27.8966,-93.5973,2.0,114.3333637,14.58575332,-99999.0,'11111222,11111222,99999999' 
TABS,ioos:station:wmo:42047:1,2006-02-02T00:00:00Z,27.8966,-93.5973,2.0,129.0732894,14.92903882,-99999.0,'11111222,11111222,99999999' 
TABS,ioos:station:wmo:42047:1,2006-02-02T00:30:00Z,27.8966,-93.5973,2.0,118.8256865,16.77909712,-99999.0,'11111222,11111222,99999999' 
TABS,ioos:station:wmo:42047:1,2006-02-02T01:00:00Z,27.8966,-93.5973,2.0,121.5843489,17.89006708,-99999.0,'11111222,11111222,99999999' 
TABS,ioos:station:wmo:42047:1,2006-02-02T01:30:00Z,27.8966,-93.5973,2.0,122.0247878,18.70684367,-99999.0,'11111222,11111222,99999999' 
TABS,ioos:station:wmo:42047:1,2006-02-02T02:00:00Z,27.8966,-93.5973,2.0,117.4534086,21.34359857,-99999.0,'11111222,11111222,99999999' 
TABS,ioos:station:wmo:42047:1,2006-02-02T02:30:00Z,27.8966,-93.5973,2.0,107.4757636,19.64682163,-99999.0,'11111222,11111222,99999999' 
TABS,ioos:station:wmo:42047:1,2006-02-02T03:00:00Z,27.8966,-93.5973,2.0,118.0021276,21.57589859,-99999.0,'11111222,11111222,99999999' 
TABS,ioos:station:wmo:42047:1,2006-02-02T03:30:00Z,27.8966,-93.5973,2.0,120.5450386,19.71600365,-99999.0,'11111222,11111222,99999999' 
TABS,ioos:station:wmo:42047:1,2006-02-02T04:00:00Z,27.8966,-93.5973,2.0,110.7440349,20.32781592,-99999.0,'11111222,11111222,99999999' 
TABS,ioos:station:wmo:42047:1,2006-02-02T04:30:00Z,27.8966,-93.5973,2.0,108.7657533,18.61980129,-99999.0,'11111222,11111222,99999999' 
TABS,ioos:station:wmo:42047:1,2006-02-02T05:00:00Z,27.8966,-93.5973,2.0,108.7223397,18.91065837,-99999.0,'11111222,11111222,99999999' 
TABS,ioos:station:wmo:42047:1,2006-02-02T05:30:00Z,27.8966,-93.5973,2.0,107.7433679,17.29259379,-99999.0,'11111222,11111222,99999999' 
TABS,ioos:station:wmo:42047:1,2006-02-02T06:00:00Z,27.8966,-93.5973,2.0,97.35746521,14.36830192,-99999.0,'11111222,11111222,99999999' 
TABS,ioos:station:wmo:42047:1,2006-02-02T06:30:00Z,27.8966,-93.5973,2.0,98.78658146,11.84905903,-99999.0,'11111222,11111222,99999999' 
TABS,ioos:station:wmo:42047:1,2006-02-02T07:00:00Z,27.8966,-93.5973,2.0,107.3135452,10.98785693,-99999.0,'11111222,11111222,99999999' 
TABS,ioos:station:wmo:42047:1,2006-02-02T07:30:00Z,27.8966,-93.5973,2.0,92.13994489,11.24784424,-99999.0,'11111222,11111222,99999999' 
TABS,ioos:station:wmo:42047:1,2006-02-02T08:00:00Z,27.8966,-93.5973,2.0,83.03616907,11.46457588,-99999.0,'11111222,11111222,99999999' 
TABS,ioos:station:wmo:42047:1,2006-02-02T09:00:00Z,27.8966,-93.5973,2.0,97.0931713,15.62961932,-99999.0,'11111222,11111222,99999999' 
TABS,ioos:station:wmo:42047:1,2006-02-02T09:30:00Z,27.8966,-93.5973,2.0,103.2875151,20.23162376,-99999.0,'11111222,11111222,99999999' 
TABS,ioos:station:wmo:42047:1,2006-02-02T10:00:00Z,27.8966,-93.5973,2.0,106.3515043,19.57162487,-99999.0,'11111222,11111222,99999999' 
TABS,ioos:station:wmo:42047:1,2006-02-02T10:30:00Z,27.8966,-93.5973,2.0,116.1219025,22.55365602,-99999.0,'11111222,11111222,99999999' 
TABS,ioos:station:wmo:42047:1,2006-02-02T11:00:00Z,27.8966,-93.5973,2.0,116.3305481,25.13808664,-99999.0,'11111222,11111222,99999999' 
TABS,ioos:station:wmo:42047:1,2006-02-02T11:30:00Z,27.8966,-93.5973,2.0,120.0616112,26.47065734,-99999.0,'11111222,11111222,99999999' 
TABS,ioos:station:wmo:42047:1,2006-02-02T12:00:00Z,27.8966,-93.5973,2.0,129.5877346,27.96345651,-99999.0,'11111222,11111222,99999999' 
TABS,ioos:station:wmo:42047:1,2006-02-02T12:30:00Z,27.8966,-93.5973,2.0,138.7035203,23.42587458,-99999.0,'11111222,11111222,99999999' 
TABS,ioos:station:wmo:42047:1,2006-02-02T13:00:00Z,27.8966,-93.5973,2.0,132.3623637,27.35158131,-99999.0,'11111222,11111222,99999999' 
TABS,ioos:station:wmo:42047:1,2006-02-02T13:30:00Z,27.8966,-93.5973,2.0,139.4906494,27.00245359,-99999.0,'11111222,11111222,99999999' 
TABS,ioos:station:wmo:42047:1,2006-02-02T14:00:00Z,27.8966,-93.5973,2.0,137.2024878,28.33348902,-99999.0,'11111222,11111222,99999999' 
TABS,ioos:station:wmo:42047:1,2006-02-02T14:30:00Z,27.8966,-93.5973,2.0,134.5931374,27.88899425,-99999.0,'11111222,11111222,99999999' 
TABS,ioos:station:wmo:42047:1,2006-02-02T15:00:00Z,27.8966,-93.5973,2.0,140.7897013,27.47691759,-99999.0,'11111222,11111222,99999999' 
TABS,ioos:station:wmo:42047:1,2006-02-02T15:30:00Z,27.8966,-93.5973,2.0,142.6770272,29.85293285,-99999.0,'11111222,11111222,99999999' 
TABS,ioos:station:wmo:42047:1,2006-02-02T16:00:00Z,27.8966,-93.5973,2.0,146.1143644,29.27169964,-99999.0,'11111222,11111222,99999999' 
TABS,ioos:station:wmo:42047:1,2006-02-02T16:30:00Z,27.8966,-93.5973,2.0,146.6283963,27.43312232,-99999.0,'11111222,11111222,99999999' 
TABS,ioos:station:wmo:42047:1,2006-02-02T17:00:00Z,27.8966,-93.5973,2.0,144.0686903,27.58970279,-99999.0,'11111222,11111222,99999999' 
TABS,ioos:station:wmo:42047:1,2006-02-02T18:00:00Z,27.8966,-93.5973,2.0,146.9229066,24.88250188,-99999.0,'11111222,11111222,99999999' 
TABS,ioos:station:wmo:42047:1,2006-02-02T18:30:00Z,27.8966,-93.5973,2.0,149.3744941,23.81127884,-99999.0,'11111222,11111222,99999999' 
TABS,ioos:station:wmo:42047:1,2006-02-02T19:00:00Z,27.8966,-93.5973,2.0,145.0762879,23.31945325,-99999.0,'11111222,11111222,99999999' 
TABS,ioos:station:wmo:42047:1,2006-02-02T19:30:00Z,27.8966,-93.5973,2.0,146.4166244,20.82625506,-99999.0,'11111222,11111222,99999999' 
TABS,ioos:station:wmo:42047:1,2006-02-02T20:00:00Z,27.8966,-93.5973,2.0,150.5228497,19.36699512,-99999.0,'11111222,11111222,99999999' 
TABS,ioos:station:wmo:42047:1,2006-02-02T20:30:00Z,27.8966,-93.5973,2.0,150.1042497,18.85954665,-99999.0,'11111222,11111222,99999999' 
TABS,ioos:station:wmo:42047:1,2006-02-02T21:00:00Z,27.8966,-93.5973,2.0,151.7059889,16.89894967,-99999.0,'11111222,11111222,99999999' 
TABS,ioos:station:wmo:42047:1,2006-02-02T21:30:00Z,27.8966,-93.5973,2.0,149.7360785,16.84584815,-99999.0,'11111222,11111222,99999999' 
TABS,ioos:station:wmo:42047:1,2006-02-02T22:00:00Z,27.8966,-93.5973,2.0,159.8343665,19.05825281,-99999.0,'11111222,11111222,99999999' 
TABS,ioos:station:wmo:42047:1,2006-02-02T22:30:00Z,27.8966,-93.5973,2.0,150.2641334,15.52418758,-99999.0,'11111222,11111222,99999999' 
TABS,ioos:station:wmo:42047:1,2006-02-02T23:00:00Z,27.8966,-93.5973,2.0,157.1975607,13.28852889,-99999.0,'11111222,11111222,99999999' 
TABS,ioos:station:wmo:42047:1,2006-02-02T23:30:00Z,27.8966,-93.5973,2.0,156.5043873,7.349319696,-99999.0,'11133222,11111222,99999999' 
TABS,ioos:station:wmo:42047:1,2006-02-03T00:00:00Z,27.8966,-93.5973,2.0,162.3097824,11.18908397,-99999.0,'11111222,11111222,99999999' 
TABS,ioos:station:wmo:42047:1,2006-02-03T00:30:00Z,27.8966,-93.5973,2.0,158.7740248,14.41811361,-99999.0,'11111222,11111222,99999999' 
TABS,ioos:station:wmo:42047:1,2006-02-03T01:00:00Z,27.8966,-93.5973,2.0,157.8049973,13.79191792,-99999.0,'11111222,11111222,99999999' 
TABS,ioos:station:wmo:42047:1,2006-02-03T01:30:00Z,27.8966,-93.5973,2.0,160.8812668,12.45709838,-99999.0,'11111222,11111222,99999999' 
TABS,ioos:station:wmo:42047:1,2006-02-03T02:00:00Z,27.8966,-93.5973,2.0,158.5633665,8.454880248,-99999.0,'11133222,11111222,99999999' 
TABS,ioos:station:wmo:42047:1,2006-02-03T03:00:00Z,27.8966,-93.5973,2.0,179.2687843,6.270510346,-99999.0,'11133222,11111222,99999999' 
TABS,ioos:station:wmo:42047:1,2006-02-03T03:30:00Z,27.8966,-93.5973,2.0,217.0965541,5.554043572,-99999.0,'11133222,11111222,99999999' 
TABS,ioos:station:wmo:42047:1,2006-02-03T04:00:00Z,27.8966,-93.5973,2.0,207.4378667,6.163318911,-99999.0,'11133222,11111222,99999999' 
TABS,ioos:station:wmo:42047:1,2006-02-03T04:30:00Z,27.8966,-93.5973,2.0,205.5082164,2.182773465,-99999.0,'11133222,11111222,99999999' 
TABS,ioos:station:wmo:42047:1,2006-02-03T05:00:00Z,27.8966,-93.5973,2.0,207.5591292,6.700268651,-99999.0,'11133222,11111222,99999999' 
TABS,ioos:station:wmo:42047:1,2006-02-03T05:30:00Z,27.8966,-93.5973,2.0,166.4138301,3.703633351,-99999.0,'11133222,11111222,99999999' 
TABS,ioos:station:wmo:42047:1,2006-02-03T06:00:00Z,27.8966,-93.5973,2.0,195.0288292,3.779272417,-99999.0,'11133222,11111222,99999999' 
TABS,ioos:station:wmo:42047:1,2006-02-03T06:30:00Z,27.8966,-93.5973,2.0,123.1112645,1.372953022,-99999.0,'11133222,11111222,99999999' 
TABS,ioos:station:wmo:42047:1,2006-02-03T07:00:00Z,27.8966,-93.5973,2.0,46.21381445,3.338292977,-99999.0,'11133222,11111222,99999999' 
TABS,ioos:station:wmo:42047:1,2006-02-03T07:30:00Z,27.8966,-93.5973,2.0,19.57947545,7.758614567,-99999.0,'11133222,11111222,99999999' 
TABS,ioos:station:wmo:42047:1,2006-02-03T08:00:00Z,27.8966,-93.5973,2.0,20.7698577,7.219148149,-99999.0,'11133222,11111222,99999999' 
TABS,ioos:station:wmo:42047:1,2006-02-03T08:30:00Z,27.8966,-93.5973,2.0,30.99785762,8.679544919,-99999.0,'11133222,11111222,99999999' 
TABS,ioos:station:wmo:42047:1,2006-02-03T09:00:00Z,27.8966,-93.5973,2.0,359.9376607,9.160005459,-99999.0,'11133222,11144222,99999999' 
TABS,ioos:station:wmo:42047:1,2006-02-03T09:30:00Z,27.8966,-93.5973,2.0,25.17433063,7.922486983,-99999.0,'11133222,11111222,99999999' 
TABS,ioos:station:wmo:42047:1,2006-02-03T10:30:00Z,27.8966,-93.5973,2.0,52.87452628,8.516084781,-99999.0,'11133222,11111222,99999999' 
TABS,ioos:station:wmo:42047:1,2006-02-03T11:00:00Z,27.8966,-93.5973,2.0,68.73926633,8.659359099,-99999.0,'11133222,11111222,99999999' 
TABS,ioos:station:wmo:42047:1,2006-02-03T11:30:00Z,27.8966,-93.5973,2.0,55.1661975,6.53012251,-99999.0,'11133222,11111222,99999999' 
TABS,ioos:station:wmo:42047:1,2006-02-03T12:00:00Z,27.8966,-93.5973,2.0,63.89893316,11.04653792,-99999.0,'11111222,11111222,99999999' 
TABS,ioos:station:wmo:42047:1,2006-02-03T12:30:00Z,27.8966,-93.5973,2.0,60.07941283,9.70328295,-99999.0,'11133222,11111222,99999999' 
TABS,ioos:station:wmo:42047:1,2006-02-03T13:00:00Z,27.8966,-93.5973,2.0,61.74678592,10.62593525,-99999.0,'11111222,11111222,99999999' 
TABS,ioos:station:wmo:42047:1,2006-02-03T13:30:00Z,27.8966,-93.5973,2.0,59.91430592,10.63244563,-99999.0,'11111222,11111222,99999999' 
TABS,ioos:station:wmo:42047:1,2006-02-03T14:00:00Z,27.8966,-93.5973,2.0,70.22988572,11.26392915,-99999.0,'11111222,11111222,99999999' 
TABS,ioos:station:wmo:42047:1,2006-02-03T14:30:00Z,27.8966,-93.5973,2.0,68.35784768,11.36088465,-99999.0,'11111222,11111222,99999999' 
TABS,ioos:station:wmo:42047:1,2006-02-03T15:00:00Z,27.8966,-93.5973,2.0,78.64973925,13.92228789,-99999.0,'11111222,11111222,99999999' 
TABS,ioos:station:wmo:42047:1,2006-02-03T15:30:00Z,27.8966,-93.5973,2.0,79.04596297,14.8403942,-99999.0,'11111222,11111222,99999999' 
TABS,ioos:station:wmo:42047:1,2006-02-03T17:00:00Z,27.8966,-93.5973,2.0,53.446948,11.93818244,-99999.0,'11111222,11111222,99999999' 
TABS,ioos:station:wmo:42047:1,2006-02-03T17:30:00Z,27.8966,-93.5973,2.0,63.24560454,13.52828518,-99999.0,'11111222,11111222,99999999' 
TABS,ioos:station:wmo:42047:1,2006-02-03T18:00:00Z,27.8966,-93.5973,2.0,64.0994925,17.35305449,-99999.0,'11111222,11111222,99999999' 
TABS,ioos:station:wmo:42047:1,2006-02-03T18:30:00Z,27.8966,-93.5973,2.0,58.41944289,18.15932267,-99999.0,'11111222,11111222,99999999' 
TABS,ioos:station:wmo:42047:1,2006-02-03T19:00:00Z,27.8966,-93.5973,2.0,49.06460177,23.24449397,-99999.0,'11111222,11111222,99999999' 
TABS,ioos:station:wmo:42047:1,2006-02-03T19:30:00Z,27.8966,-93.5973,2.0,47.42262467,18.90371657,-99999.0,'11111222,11111222,99999999' 
TABS,ioos:station:wmo:42047:1,2006-02-03T20:30:00Z,27.8966,-93.5973,2.0,126.8840658,32.156001,-99999.0,'11111222,11111222,99999999' 
TABS,ioos:station:wmo:42047:1,2006-02-03T21:00:00Z,27.8966,-93.5973,2.0,120.4104449,38.00928834,-99999.0,'11111222,11111222,99999999' 
TABS,ioos:station:wmo:42047:1,2006-02-03T21:30:00Z,27.8966,-93.5973,2.0,119.6706797,42.1805275,-99999.0,'11111222,11111222,99999999' 
TABS,ioos:station:wmo:42047:1,2006-02-03T22:00:00Z,27.8966,-93.5973,2.0,123.7551262,43.91286941,-99999.0,'11111222,11111222,99999999' 
TABS,ioos:station:wmo:42047:1,2006-02-03T22:30:00Z,27.8966,-93.5973,2.0,130.6952425,44.93612022,-99999.0,'11111222,11111222,99999999' 
TABS,ioos:station:wmo:42047:1,2006-02-03T23:30:00Z,27.8966,-93.5973,2.0,133.9077357,48.96896977,-99999.0,'11111222,11111222,99999999' 
TABS,ioos:station:wmo:42047:1,2006-02-04T00:30:00Z,27.8966,-93.5973,2.0,158.2799461,56.12461581,-99999.0,'11111222,11111222,99999999' 
TABS,ioos:station:wmo:42047:1,2006-02-04T01:00:00Z,27.8966,-93.5973,2.0,173.6944276,45.43485116,-99999.0,'11111222,11111222,99999999' 
TABS,ioos:station:wmo:42047:1,2006-02-04T01:30:00Z,27.8966,-93.5973,2.0,174.6671606,31.52644921,-99999.0,'11111222,11111222,99999999' 
TABS,ioos:station:wmo:42047:1,2006-02-04T02:00:00Z,27.8966,-93.5973,2.0,175.5945404,26.81923191,-99999.0,'11111222,11111222,99999999' 
TABS,ioos:station:wmo:42047:1,2006-02-04T02:30:00Z,27.8966,-93.5973,2.0,175.0145911,27.27316997,-99999.0,'11111222,11111222,99999999' 
TABS,ioos:station:wmo:42047:1,2006-02-04T03:00:00Z,27.8966,-93.5973,2.0,180.8558431,26.77298825,-99999.0,'11111222,11111222,99999999' 
TABS,ioos:station:wmo:42047:1,2006-02-04T03:30:00Z,27.8966,-93.5973,2.0,174.4835871,21.11779581,-99999.0,'11111222,11111222,99999999' 
TABS,ioos:station:wmo:42047:1,2006-02-04T04:00:00Z,27.8966,-93.5973,2.0,164.4158211,18.94651947,-99999.0,'11111222,11111222,99999999' 
TABS,ioos:station:wmo:42047:1,2006-02-04T04:30:00Z,27.8966,-93.5973,2.0,175.6428247,20.00782097,-99999.0,'11111222,11111222,99999999' 
TABS,ioos:station:wmo:42047:1,2006-02-04T05:00:00Z,27.8966,-93.5973,2.0,179.7042361,13.57018054,-99999.0,'11111222,11111222,99999999' 
TABS,ioos:station:wmo:42047:1,2006-02-04T05:30:00Z,27.8966,-93.5973,2.0,172.5984187,16.45712004,-99999.0,'11111222,11111222,99999999' 
TABS,ioos:station:wmo:42047:1,2006-02-04T06:00:00Z,27.8966,-93.5973,2.0,188.9832118,11.01511689,-99999.0,'11111222,11111222,99999999' 
TABS,ioos:station:wmo:42047:1,2006-02-04T06:30:00Z,27.8966,-93.5973,2.0,202.3038708,13.12173769,-99999.0,'11111222,11111222,99999999' 
TABS,ioos:station:wmo:42047:1,2006-02-04T07:00:00Z,27.8966,-93.5973,2.0,149.1187831,5.942432162,-99999.0,'11133222,11111222,99999999' 
TABS,ioos:station:wmo:42047:1,2006-02-04T07:30:00Z,27.8966,-93.5973,2.0,180.2883263,13.90017626,-99999.0,'11111222,11111222,99999999' 
TABS,ioos:station:wmo:42047:1,2006-02-04T08:00:00Z,27.8966,-93.5973,2.0,167.4483766,8.236850126,-99999.0,'11133222,11111222,99999999' 
TABS,ioos:station:wmo:42047:1,2006-02-04T08:30:00Z,27.8966,-93.5973,2.0,182.4600435,14.44331333,-99999.0,'11111222,11111222,99999999' 
TABS,ioos:station:wmo:42047:1,2006-02-04T09:00:00Z,27.8966,-93.5973,2.0,189.4721884,18.65435338,-99999.0,'11111222,11111222,99999999' 
TABS,ioos:station:wmo:42047:1,2006-02-04T09:30:00Z,27.8966,-93.5973,2.0,196.1162086,16.10285068,-99999.0,'11111222,11111222,99999999' 
TABS,ioos:station:wmo:42047:1,2006-02-04T10:00:00Z,27.8966,-93.5973,2.0,205.5737887,19.13465965,-99999.0,'11111222,11111222,99999999' 
TABS,ioos:station:wmo:42047:1,2006-02-04T10:30:00Z,27.8966,-93.5973,2.0,210.8636556,15.75045396,-99999.0,'11111222,11111222,99999999' 
TABS,ioos:station:wmo:42047:1,2006-02-04T11:00:00Z,27.8966,-93.5973,2.0,202.5583965,11.52154504,-99999.0,'11111222,11111222,99999999' 
TABS,ioos:station:wmo:42047:1,2006-02-04T11:30:00Z,27.8966,-93.5973,2.0,210.0337331,10.56913431,-99999.0,'11111222,11111222,99999999' 
TABS,ioos:station:wmo:42047:1,2006-02-04T12:00:00Z,27.8966,-93.5973,2.0,212.5455605,12.36118522,-99999.0,'11111222,11111222,99999999' 
TABS,ioos:station:wmo:42047:1,2006-02-04T12:30:00Z,27.8966,-93.5973,2.0,231.1882858,9.445422172,-99999.0,'11133222,11111222,99999999' 
TABS,ioos:station:wmo:42047:1,2006-02-04T13:00:00Z,27.8966,-93.5973,2.0,176.4153382,8.797209785,-99999.0,'11133222,11111222,99999999' 
TABS,ioos:station:wmo:42047:1,2006-02-04T13:30:00Z,27.8966,-93.5973,2.0,202.7455842,6.646939145,-99999.0,'11133222,11111222,99999999' 
TABS,ioos:station:wmo:42047:1,2006-02-04T14:00:00Z,27.8966,-93.5973,2.0,188.0856121,7.322800011,-99999.0,'11133222,11111222,99999999' 
TABS,ioos:station:wmo:42047:1,2006-02-04T14:30:00Z,27.8966,-93.5973,2.0,174.1849193,7.106567385,-99999.0,'11133222,11111222,99999999' 
TABS,ioos:station:wmo:42047:1,2006-02-04T15:00:00Z,27.8966,-93.5973,2.0,120.9292102,5.700614002,-99999.0,'11133222,11111222,99999999' 
TABS,ioos:station:wmo:42047:1,2006-02-04T15:30:00Z,27.8966,-93.5973,2.0,146.2256663,11.33253723,-99999.0,'11111222,11111222,99999999' 
TABS,ioos:station:wmo:42047:1,2006-02-04T16:00:00Z,27.8966,-93.5973,2.0,144.2036664,14.9426236,-99999.0,'11111222,11111222,99999999' 
TABS,ioos:station:wmo:42047:1,2006-02-04T16:30:00Z,27.8966,-93.5973,2.0,148.6257977,11.25574076,-99999.0,'11111222,11111222,99999999' 
TABS,ioos:station:wmo:42047:1,2006-02-04T17:00:00Z,27.8966,-93.5973,2.0,145.1088102,17.20225857,-99999.0,'11111222,11111222,99999999' 
TABS,ioos:station:wmo:42047:1,2006-02-04T17:30:00Z,27.8966,-93.5973,2.0,130.4344421,15.27956151,-99999.0,'11111222,11111222,99999999' 
TABS,ioos:station:wmo:42047:1,2006-02-04T18:00:00Z,27.8966,-93.5973,2.0,143.4865727,18.63836098,-99999.0,'11111222,11111222,99999999' 
TABS,ioos:station:wmo:42047:1,2006-02-04T18:30:00Z,27.8966,-93.5973,2.0,138.1256306,20.35960952,-99999.0,'11111222,11111222,99999999' 
TABS,ioos:station:wmo:42047:1,2006-02-04T19:00:00Z,27.8966,-93.5973,2.0,135.8922781,22.70088104,-99999.0,'11111222,11111222,99999999' 
TABS,ioos:station:wmo:42047:1,2006-02-04T19:30:00Z,27.8966,-93.5973,2.0,130.3863764,24.87884443,-99999.0,'11111222,11111222,99999999' 
TABS,ioos:station:wmo:42047:1,2006-02-04T20:00:00Z,27.8966,-93.5973,2.0,125.0001366,28.62724052,-99999.0,'11111222,11111222,99999999' 
TABS,ioos:station:wmo:42047:1,2006-02-04T20:30:00Z,27.8966,-93.5973,2.0,125.4390975,29.07706484,-99999.0,'11111222,11111222,99999999' 
TABS,ioos:station:wmo:42047:1,2006-02-04T21:00:00Z,27.8966,-93.5973,2.0,124.5708979,29.76595707,-99999.0,'11111222,11111222,99999999' 